Wolke Sonne

Wetter Ammerndorf

Gehe zu: Roßtal

Tageswerte vom Samstag, 19.03.2022

Optionen

Tag:
Erweitert:

Alle Werte vom Samstag, 19.03.2022

Einen Moment bitte, die Daten werden aufbereitet...

UhrzeitTemperaturBoden 10cmBoden 20cmFeuchteLuftdruckNiederschlagEvapotranspirationWindWindböenWindrichtungSolarstrahlungUV-IndexSonne?Uhrzeit
Diagramm IconDiagramm IconDiagramm IconDiagramm IconDiagramm IconDiagramm IconDiagramm IconDiagramm IconDiagramm IconDiagramm IconDiagramm IconDiagramm IconDiagramm Icon
00:001,4 °C 5,6 °C 5,6 °C 89 % 1044,0 hPa 0,0 mm - 0,0 km/h 3,2 km/h NNO 0,0 W/qm 0,0 nein 00:00
00:051,3 °C 5,6 °C 5,6 °C 89 % 1044,1 hPa 0,0 mm 0,0 mm 0,0 km/h 3,2 km/h NNO 0,0 W/qm 0,0 nein 00:05
00:101,3 °C 5,6 °C 5,6 °C 90 % 1044,1 hPa 0,0 mm 0,0 mm 0,0 km/h 3,2 km/h NNO 0,0 W/qm 0,0 nein 00:10
00:151,1 °C 5,6 °C 5,6 °C 90 % 1044,0 hPa 0,0 mm - 0,0 km/h 1,4 km/h NNO 0,0 W/qm 0,0 nein 00:15
00:201,1 °C 5,6 °C 5,6 °C 90 % 1044,0 hPa 0,0 mm - 0,0 km/h 1,4 km/h NNO 0,0 W/qm 0,0 nein 00:20
00:251,1 °C 5,6 °C 5,6 °C 90 % 1044,0 hPa 0,0 mm - 0,0 km/h 1,4 km/h NNO 0,0 W/qm 0,0 nein 00:25
00:300,9 °C 5,6 °C 5,6 °C 90 % 1043,9 hPa 0,0 mm - 0,0 km/h 1,4 km/h NNO 0,0 W/qm 0,0 nein 00:30
00:350,9 °C 5,6 °C 5,6 °C 91 % 1043,9 hPa 0,0 mm - 0,0 km/h 1,4 km/h NNO 0,0 W/qm 0,0 nein 00:35
00:400,9 °C 5,6 °C 5,6 °C 91 % 1043,9 hPa 0,0 mm - 0,0 km/h 1,4 km/h NNO 0,0 W/qm 0,0 nein 00:40
00:450,7 °C 5,6 °C 5,6 °C 90 % 1043,8 hPa 0,0 mm - 0,0 km/h 0,0 km/h ONO 0,0 W/qm 0,0 nein 00:45
00:500,6 °C 5,6 °C 5,6 °C 91 % 1043,9 hPa 0,0 mm - 0,0 km/h 0,0 km/h ONO 0,0 W/qm 0,0 nein 00:50
00:550,6 °C 5,6 °C 5,6 °C 91 % 1043,8 hPa 0,0 mm - 0,0 km/h 0,0 km/h NO 0,0 W/qm 0,0 nein 00:55
01:000,6 °C 5,6 °C 5,6 °C 91 % 1043,8 hPa 0,0 mm - 1,4 km/h 3,2 km/h NO 0,0 W/qm 0,0 nein 01:00
01:050,7 °C 5,6 °C 5,6 °C 91 % 1043,8 hPa 0,0 mm 0,0 mm 1,4 km/h 7,9 km/h ONO 0,0 W/qm 0,0 nein 01:05
01:101,2 °C 5,6 °C 5,6 °C 92 % 1043,8 hPa 0,0 mm 0,0 mm 3,2 km/h 7,9 km/h NO 0,0 W/qm 0,0 nein 01:10
01:151,1 °C 5,6 °C 5,6 °C 91 % 1043,7 hPa 0,0 mm - 3,2 km/h 7,9 km/h NO 0,0 W/qm 0,0 nein 01:15
01:200,8 °C 5,6 °C 5,6 °C 91 % 1043,7 hPa 0,0 mm - 1,4 km/h 7,9 km/h ONO 0,0 W/qm 0,0 nein 01:20
01:250,7 °C 5,6 °C 5,6 °C 91 % 1043,7 hPa 0,0 mm - 0,0 km/h 7,9 km/h ONO 0,0 W/qm 0,0 nein 01:25
01:300,6 °C 5,6 °C 5,6 °C 91 % 1043,8 hPa 0,0 mm - 0,0 km/h 4,7 km/h ONO 0,0 W/qm 0,0 nein 01:30
01:350,4 °C 5,6 °C 5,6 °C 91 % 1043,8 hPa 0,0 mm - 0,0 km/h 4,7 km/h NO 0,0 W/qm 0,0 nein 01:35
01:400,5 °C 5,0 °C 5,6 °C 92 % 1043,6 hPa 0,0 mm - 0,0 km/h 4,7 km/h NNO 0,0 W/qm 0,0 nein 01:40
01:450,4 °C 5,0 °C 5,6 °C 92 % 1043,5 hPa 0,0 mm - 0,0 km/h 3,2 km/h NNO 0,0 W/qm 0,0 nein 01:45
01:500,3 °C 5,0 °C 5,6 °C 92 % 1043,5 hPa 0,0 mm - 0,0 km/h 3,2 km/h NNO 0,0 W/qm 0,0 nein 01:50
01:550,3 °C 5,0 °C 5,6 °C 92 % 1043,5 hPa 0,0 mm - 0,0 km/h 3,2 km/h NNO 0,0 W/qm 0,0 nein 01:55
UhrzeitTemperaturBoden 10cmBoden 20cmFeuchteLuftdruckNiederschlagEvapotranspirationWindWindböenWindrichtungSolarstrahlungUV-IndexSonne?Uhrzeit
02:000,2 °C 5,0 °C 5,6 °C 92 % 1043,5 hPa 0,0 mm - 0,0 km/h 0,0 km/h NNO 0,0 W/qm 0,0 nein 02:00
02:050,1 °C 5,0 °C 5,6 °C 92 % 1043,5 hPa 0,0 mm 0,0 mm 0,0 km/h 0,0 km/h NNO 0,0 W/qm 0,0 nein 02:05
02:10-0,1 °C 5,0 °C 5,6 °C 92 % 1043,6 hPa 0,0 mm 0,0 mm 0,0 km/h 0,0 km/h NNO 0,0 W/qm 0,0 nein 02:10
02:15-0,2 °C 5,0 °C 5,6 °C 92 % 1043,6 hPa 0,0 mm - 0,0 km/h 0,0 km/h NNO 0,0 W/qm 0,0 nein 02:15
02:20-0,2 °C 5,0 °C 5,6 °C 92 % 1043,6 hPa 0,0 mm - 0,0 km/h 0,0 km/h NNO 0,0 W/qm 0,0 nein 02:20
02:25-0,1 °C 5,0 °C 5,6 °C 92 % 1043,6 hPa 0,0 mm - 0,0 km/h 0,0 km/h NNO 0,0 W/qm 0,0 nein 02:25
02:30-0,2 °C 5,0 °C 5,6 °C 92 % 1043,6 hPa 0,0 mm - 0,0 km/h 0,0 km/h NNO 0,0 W/qm 0,0 nein 02:30
02:35-0,4 °C 5,0 °C 5,6 °C 92 % 1043,6 hPa 0,0 mm - 0,0 km/h 0,0 km/h NNO 0,0 W/qm 0,0 nein 02:35
02:40-0,6 °C 5,0 °C 5,6 °C 92 % 1043,6 hPa 0,0 mm - 0,0 km/h 0,0 km/h NNO 0,0 W/qm 0,0 nein 02:40
02:45-0,7 °C 5,0 °C 5,6 °C 92 % 1043,7 hPa 0,0 mm - 0,0 km/h 0,0 km/h NNO 0,0 W/qm 0,0 nein 02:45
02:50-0,7 °C 5,0 °C 5,6 °C 92 % 1043,7 hPa 0,0 mm - 0,0 km/h 0,0 km/h NNO 0,0 W/qm 0,0 nein 02:50
02:55-0,7 °C 5,0 °C 5,6 °C 92 % 1043,7 hPa 0,0 mm - 0,0 km/h 0,0 km/h NNO 0,0 W/qm 0,0 nein 02:55
03:00-0,7 °C 5,0 °C 5,6 °C 92 % 1043,7 hPa 0,0 mm - 0,0 km/h 0,0 km/h NNO 0,0 W/qm 0,0 nein 03:00
03:05-0,7 °C 5,0 °C 5,6 °C 92 % 1043,4 hPa 0,0 mm 0,0 mm 0,0 km/h 0,0 km/h NNO 0,0 W/qm 0,0 nein 03:05
03:10-0,8 °C 5,0 °C 5,6 °C 92 % 1043,6 hPa 0,0 mm 0,0 mm 0,0 km/h 0,0 km/h NNO 0,0 W/qm 0,0 nein 03:10
03:15-1,0 °C 5,0 °C 5,6 °C 92 % 1043,6 hPa 0,0 mm - 0,0 km/h 0,0 km/h NNO 0,0 W/qm 0,0 nein 03:15
03:20-1,2 °C 5,0 °C 5,6 °C 92 % 1043,6 hPa 0,0 mm - 0,0 km/h 0,0 km/h NNO 0,0 W/qm 0,0 nein 03:20
03:25-1,2 °C 5,0 °C 5,6 °C 92 % 1043,4 hPa 0,0 mm - 0,0 km/h 0,0 km/h NNO 0,0 W/qm 0,0 nein 03:25
03:30-1,2 °C 5,0 °C 5,6 °C 92 % 1043,4 hPa 0,0 mm - 0,0 km/h 0,0 km/h NNO 0,0 W/qm 0,0 nein 03:30
03:35-1,2 °C 5,0 °C 5,6 °C 92 % 1043,4 hPa 0,0 mm - 0,0 km/h 0,0 km/h NNO 0,0 W/qm 0,0 nein 03:35
03:40-1,3 °C 5,0 °C 5,6 °C 92 % 1043,3 hPa 0,0 mm - 0,0 km/h 0,0 km/h NNO 0,0 W/qm 0,0 nein 03:40
03:45-1,3 °C 5,0 °C 5,6 °C 93 % 1043,3 hPa 0,0 mm - 0,0 km/h 0,0 km/h NNO 0,0 W/qm 0,0 nein 03:45
03:50-1,4 °C 5,0 °C 5,6 °C 93 % 1043,2 hPa 0,0 mm - 0,0 km/h 0,0 km/h NNO 0,0 W/qm 0,0 nein 03:50
03:55-1,2 °C 5,0 °C 5,6 °C 93 % 1043,2 hPa 0,0 mm - 0,0 km/h 0,0 km/h NNO 0,0 W/qm 0,0 nein 03:55
UhrzeitTemperaturBoden 10cmBoden 20cmFeuchteLuftdruckNiederschlagEvapotranspirationWindWindböenWindrichtungSolarstrahlungUV-IndexSonne?Uhrzeit
04:00-1,3 °C 5,0 °C 5,6 °C 93 % 1043,2 hPa 0,0 mm - 0,0 km/h 0,0 km/h NNO 0,0 W/qm 0,0 nein 04:00
04:05-1,2 °C 5,0 °C 5,6 °C 93 % 1043,1 hPa 0,0 mm 0,0 mm 0,0 km/h 0,0 km/h NNO 0,0 W/qm 0,0 nein 04:05
04:10-1,5 °C 5,0 °C 5,6 °C 92 % 1043,2 hPa 0,0 mm 0,0 mm 0,0 km/h 0,0 km/h NNO 0,0 W/qm 0,0 nein 04:10
04:15-1,4 °C 5,0 °C 5,6 °C 93 % 1043,1 hPa 0,0 mm - 0,0 km/h 0,0 km/h NNO 0,0 W/qm 0,0 nein 04:15
04:20-1,3 °C 5,0 °C 5,6 °C 93 % 1043,0 hPa 0,0 mm - 0,0 km/h 0,0 km/h NNO 0,0 W/qm 0,0 nein 04:20
04:25-1,3 °C 5,0 °C 5,6 °C 93 % 1043,0 hPa 0,0 mm - 0,0 km/h 0,0 km/h NNO 0,0 W/qm 0,0 nein 04:25
04:30-1,4 °C 5,0 °C 5,6 °C 93 % 1043,0 hPa 0,0 mm - 0,0 km/h 0,0 km/h NNO 0,0 W/qm 0,0 nein 04:30
04:35-1,5 °C 5,0 °C 5,6 °C 93 % 1043,2 hPa 0,0 mm - 0,0 km/h 0,0 km/h NNO 0,0 W/qm 0,0 nein 04:35
04:40-1,6 °C 5,0 °C 5,6 °C 93 % 1043,1 hPa 0,0 mm - 0,0 km/h 0,0 km/h NNO 0,0 W/qm 0,0 nein 04:40
04:45-1,6 °C 5,0 °C 5,6 °C 93 % 1043,1 hPa 0,0 mm - 0,0 km/h 0,0 km/h NNO 0,0 W/qm 0,0 nein 04:45
04:50-1,8 °C 5,0 °C 5,6 °C 93 % 1043,1 hPa 0,0 mm - 0,0 km/h 0,0 km/h NNO 0,0 W/qm 0,0 nein 04:50
04:55-1,7 °C 4,4 °C 5,6 °C 93 % 1043,0 hPa 0,0 mm - 0,0 km/h 0,0 km/h NNO 0,0 W/qm 0,0 nein 04:55
05:00-2,0 °C 4,4 °C 5,6 °C 93 % 1043,0 hPa 0,0 mm - 0,0 km/h 0,0 km/h NNO 0,0 W/qm 0,0 nein 05:00
05:05-2,1 °C 4,4 °C 5,6 °C 93 % 1042,9 hPa 0,0 mm 0,0 mm 0,0 km/h 0,0 km/h NNO 0,0 W/qm 0,0 nein 05:05
05:10-2,1 °C 4,4 °C 5,6 °C 93 % 1042,9 hPa 0,0 mm 0,0 mm 0,0 km/h 0,0 km/h NNO 0,0 W/qm 0,0 nein 05:10
05:15-2,1 °C 4,4 °C 5,6 °C 93 % 1042,9 hPa 0,0 mm - 0,0 km/h 0,0 km/h NNO 0,0 W/qm 0,0 nein 05:15
05:20-2,3 °C 4,4 °C 5,6 °C 93 % 1042,9 hPa 0,0 mm - 0,0 km/h 0,0 km/h NNO 0,0 W/qm 0,0 nein 05:20
05:25-2,2 °C 4,4 °C 5,6 °C 93 % 1042,8 hPa 0,0 mm - 0,0 km/h 0,0 km/h NNO 0,0 W/qm 0,0 nein 05:25
05:30-2,1 °C 4,4 °C 5,6 °C 93 % 1042,9 hPa 0,0 mm - 0,0 km/h 0,0 km/h NNO 0,0 W/qm 0,0 nein 05:30
05:35-2,1 °C 4,4 °C 5,6 °C 93 % 1042,8 hPa 0,0 mm - 0,0 km/h 0,0 km/h NNO 0,0 W/qm 0,0 nein 05:35
05:40-2,2 °C 4,4 °C 5,6 °C 93 % 1043,0 hPa 0,0 mm - 0,0 km/h 0,0 km/h NNO 0,0 W/qm 0,0 nein 05:40
05:45-2,3 °C 4,4 °C 5,6 °C 93 % 1043,0 hPa 0,0 mm - 0,0 km/h 0,0 km/h NNO 0,0 W/qm 0,0 nein 05:45
05:50-2,1 °C 4,4 °C 5,6 °C 93 % 1042,8 hPa 0,0 mm - 0,0 km/h 0,0 km/h NNO 0,0 W/qm 0,0 nein 05:50
05:55-2,2 °C 4,4 °C 5,6 °C 93 % 1043,0 hPa 0,0 mm - 0,0 km/h 0,0 km/h NNO 0,0 W/qm 0,0 nein 05:55
UhrzeitTemperaturBoden 10cmBoden 20cmFeuchteLuftdruckNiederschlagEvapotranspirationWindWindböenWindrichtungSolarstrahlungUV-IndexSonne?Uhrzeit
06:00-2,2 °C 4,4 °C 5,0 °C 93 % 1043,0 hPa 0,0 mm - 0,0 km/h 0,0 km/h NNO 0,0 W/qm 0,0 nein 06:00
06:05-2,4 °C 4,4 °C 5,0 °C 93 % 1043,1 hPa 0,0 mm 0,0 mm 0,0 km/h 0,0 km/h NNO 0,0 W/qm 0,0 nein 06:05
06:10-2,5 °C 4,4 °C 5,0 °C 93 % 1043,1 hPa 0,0 mm 0,0 mm 0,0 km/h 0,0 km/h NNO 0,0 W/qm 0,0 nein 06:10
06:15-2,4 °C 4,4 °C 5,0 °C 93 % 1043,1 hPa 0,0 mm - 0,0 km/h 0,0 km/h NNO 0,0 W/qm 0,0 nein 06:15
06:20-2,4 °C 4,4 °C 5,0 °C 93 % 1043,1 hPa 0,0 mm - 0,0 km/h 0,0 km/h NNO 5,0 W/qm 0,0 nein 06:20
06:25-2,6 °C 4,4 °C 5,0 °C 93 % 1043,1 hPa 0,0 mm - 0,0 km/h 0,0 km/h NNO 7,0 W/qm 0,0 nein 06:25
06:30-2,5 °C 4,4 °C 5,0 °C 93 % 1043,2 hPa 0,0 mm - 0,0 km/h 0,0 km/h NNO 9,0 W/qm 0,0 nein 06:30
06:35-2,4 °C 4,4 °C 5,0 °C 93 % 1043,2 hPa 0,0 mm - 0,0 km/h 0,0 km/h NNO 12,0 W/qm 0,0 nein 06:35
06:40-2,5 °C 4,4 °C 5,0 °C 93 % 1043,1 hPa 0,0 mm - 0,0 km/h 0,0 km/h NNO 16,0 W/qm 0,0 nein 06:40
06:45-2,7 °C 4,4 °C 5,0 °C 93 % 1043,1 hPa 0,0 mm - 0,0 km/h 0,0 km/h NNO 19,0 W/qm 0,0 nein 06:45
06:50-2,6 °C 4,4 °C 5,0 °C 93 % 1043,2 hPa 0,0 mm - 0,0 km/h 0,0 km/h NNO 23,0 W/qm 0,0 nein 06:50
06:55-2,5 °C 4,4 °C 5,0 °C 93 % 1043,2 hPa 0,0 mm - 0,0 km/h 0,0 km/h NNO 28,0 W/qm 0,0 nein 06:55
07:00-2,5 °C 4,4 °C 5,0 °C 93 % 1043,1 hPa 0,0 mm - 0,0 km/h 0,0 km/h NNO 32,0 W/qm 0,0 nein 07:00
07:05-2,4 °C 4,4 °C 5,0 °C 93 % 1043,2 hPa 0,0 mm 0,0 mm 0,0 km/h 0,0 km/h NNO 35,0 W/qm 0,0 nein 07:05
07:10-2,4 °C 4,4 °C 5,0 °C 93 % 1043,1 hPa 0,0 mm 0,0 mm 0,0 km/h 0,0 km/h NNO 39,0 W/qm 0,0 nein 07:10
07:15-2,4 °C 4,4 °C 5,0 °C 93 % 1043,1 hPa 0,0 mm - 0,0 km/h 0,0 km/h NNO 44,0 W/qm 0,0 nein 07:15
07:20-2,3 °C 4,4 °C 5,0 °C 93 % 1043,1 hPa 0,0 mm - 0,0 km/h 0,0 km/h NNO 49,0 W/qm 0,0 nein 07:20
07:25-2,2 °C 4,4 °C 5,0 °C 93 % 1043,1 hPa 0,0 mm - 0,0 km/h 0,0 km/h NNO 56,0 W/qm 0,0 nein 07:25
07:30-2,1 °C 4,4 °C 5,0 °C 93 % 1043,0 hPa 0,0 mm - 0,0 km/h 0,0 km/h NNO 62,0 W/qm 0,0 nein 07:30
07:35-1,9 °C 4,4 °C 5,0 °C 94 % 1042,9 hPa 0,0 mm - 0,0 km/h 0,0 km/h NNO 67,0 W/qm 0,0 nein 07:35
07:40-1,7 °C 4,4 °C 5,0 °C 93 % 1042,9 hPa 0,0 mm - 0,0 km/h 0,0 km/h NNO 72,0 W/qm 0,0 nein 07:40
07:45-1,5 °C 4,4 °C 5,0 °C 94 % 1042,7 hPa 0,0 mm - 0,0 km/h 0,0 km/h NNO 77,0 W/qm 0,0 nein 07:45
07:50-1,3 °C 4,4 °C 5,0 °C 94 % 1042,6 hPa 0,0 mm - 0,0 km/h 0,0 km/h NNO 83,0 W/qm 0,0 nein 07:50
07:55-1,1 °C 4,4 °C 5,0 °C 93 % 1042,5 hPa 0,0 mm - 0,0 km/h 0,0 km/h NNO 84,0 W/qm 0,0 nein 07:55
UhrzeitTemperaturBoden 10cmBoden 20cmFeuchteLuftdruckNiederschlagEvapotranspirationWindWindböenWindrichtungSolarstrahlungUV-IndexSonne?Uhrzeit
08:00-0,9 °C 4,4 °C 5,0 °C 94 % 1042,4 hPa 0,0 mm - 0,0 km/h 0,0 km/h NNO 88,0 W/qm 0,0 nein 08:00
08:05-0,7 °C 4,4 °C 5,0 °C 94 % 1042,4 hPa 0,0 mm 0,0 mm 0,0 km/h 0,0 km/h NNO 90,0 W/qm 0,0 nein 08:05
08:10-0,5 °C 4,4 °C 5,0 °C 94 % 1042,3 hPa 0,0 mm 0,0 mm 0,0 km/h 0,0 km/h ONO 91,0 W/qm 0,0 nein 08:10
08:150,4 °C 4,4 °C 5,0 °C 94 % 1042,1 hPa 0,0 mm - 1,4 km/h 3,2 km/h NO 95,0 W/qm 0,0 nein 08:15
08:201,7 °C 4,4 °C 5,0 °C 94 % 1041,9 hPa 0,0 mm - 4,7 km/h 7,9 km/h NO 104,0 W/qm 0,0 nein 08:20
08:252,3 °C 4,4 °C 5,0 °C 94 % 1041,7 hPa 0,0 mm - 4,7 km/h 11,2 km/h ONO 234,0 W/qm 0,0 nein 08:25
08:302,9 °C 4,4 °C 5,0 °C 94 % 1041,5 hPa 0,0 mm - 6,5 km/h 11,2 km/h NO 246,0 W/qm 0,0 nein 08:30
08:353,4 °C 4,4 °C 5,0 °C 93 % 1041,3 hPa 0,0 mm - 6,5 km/h 11,2 km/h ONO 257,0 W/qm 0,5 ja 08:35
08:403,7 °C 4,4 °C 5,0 °C 92 % 1041,3 hPa 0,0 mm - 6,5 km/h 13,0 km/h NO 288,0 W/qm 0,5 ja 08:40
08:454,0 °C 4,4 °C 5,0 °C 90 % 1041,2 hPa 0,0 mm - 6,5 km/h 13,0 km/h NNO 287,0 W/qm 0,5 ja 08:45
08:504,3 °C 4,4 °C 5,0 °C 89 % 1041,2 hPa 0,0 mm - 6,5 km/h 13,0 km/h NO 334,0 W/qm 0,6 ja 08:50
08:554,6 °C 4,4 °C 5,0 °C 86 % 1041,1 hPa 0,0 mm - 4,7 km/h 13,0 km/h NO 348,0 W/qm 0,7 ja 08:55
09:004,8 °C 4,4 °C 5,0 °C 85 % 1040,9 hPa 0,0 mm - 3,2 km/h 13,0 km/h O 362,0 W/qm 0,7 ja 09:00
09:055,1 °C 4,4 °C 5,0 °C 84 % 1040,8 hPa 0,0 mm 0,1 mm 4,7 km/h 13,0 km/h NO 373,0 W/qm 0,7 ja 09:05
09:105,3 °C 4,4 °C 5,0 °C 82 % 1040,5 hPa 0,0 mm 0,1 mm 6,5 km/h 9,7 km/h ONO 394,0 W/qm 0,8 ja 09:10
09:155,7 °C 4,4 °C 5,0 °C 80 % 1040,5 hPa 0,0 mm - 6,5 km/h 13,0 km/h NO 403,0 W/qm 0,8 ja 09:15
09:205,8 °C 4,4 °C 5,0 °C 79 % 1040,4 hPa 0,0 mm - 7,9 km/h 13,0 km/h ONO 410,0 W/qm 0,9 ja 09:20
09:255,9 °C 4,4 °C 5,0 °C 77 % 1040,1 hPa 0,0 mm - 7,9 km/h 14,4 km/h NO 427,0 W/qm 0,9 ja 09:25
09:306,1 °C 4,4 °C 5,0 °C 76 % 1040,2 hPa 0,0 mm - 6,5 km/h 16,2 km/h NNO 436,0 W/qm 1,0 ja 09:30
09:356,4 °C 4,4 °C 5,0 °C 76 % 1040,2 hPa 0,0 mm - 7,9 km/h 20,9 km/h NO 432,0 W/qm 1,0 ja 09:35
09:406,6 °C 4,4 °C 5,0 °C 75 % 1040,1 hPa 0,0 mm - 7,9 km/h 20,9 km/h NO 445,0 W/qm 1,0 ja 09:40
09:456,7 °C 4,4 °C 5,0 °C 73 % 1039,9 hPa 0,0 mm - 9,7 km/h 20,9 km/h ONO 434,0 W/qm 1,0 ja 09:45
09:506,7 °C 4,4 °C 5,0 °C 72 % 1039,8 hPa 0,0 mm - 9,7 km/h 19,4 km/h ONO 424,0 W/qm 1,1 ja 09:50
09:556,8 °C 4,4 °C 5,0 °C 72 % 1039,9 hPa 0,0 mm - 7,9 km/h 19,4 km/h NNO 341,0 W/qm 0,9 ja 09:55
UhrzeitTemperaturBoden 10cmBoden 20cmFeuchteLuftdruckNiederschlagEvapotranspirationWindWindböenWindrichtungSolarstrahlungUV-IndexSonne?Uhrzeit
10:007,1 °C 4,4 °C 5,0 °C 71 % 1039,7 hPa 0,0 mm - 7,9 km/h 19,4 km/h O 526,0 W/qm 1,2 ja 10:00
10:057,2 °C 4,4 °C 5,0 °C 70 % 1039,6 hPa 0,0 mm 0,3 mm 9,7 km/h 16,2 km/h ONO 174,0 W/qm 0,9 nein 10:05
10:107,4 °C 4,4 °C 5,0 °C 69 % 1039,5 hPa 0,0 mm 0,3 mm 9,7 km/h 16,2 km/h NNO 628,0 W/qm 1,3 ja 10:10
10:157,9 °C 4,4 °C 5,0 °C 67 % 1039,4 hPa 0,0 mm - 11,2 km/h 24,1 km/h NO 645,0 W/qm 1,3 ja 10:15
10:208,1 °C 4,4 °C 5,0 °C 65 % 1039,3 hPa 0,0 mm - 11,2 km/h 25,9 km/h NNO 603,0 W/qm 1,4 ja 10:20
10:258,1 °C 4,4 °C 5,0 °C 63 % 1039,3 hPa 0,0 mm - 13,0 km/h 25,9 km/h NO 218,0 W/qm 1,1 nein 10:25
10:307,9 °C 4,4 °C 5,0 °C 64 % 1039,2 hPa 0,0 mm - 16,2 km/h 25,9 km/h NO 591,0 W/qm 1,2 ja 10:30
10:357,9 °C 4,4 °C 5,0 °C 65 % 1039,2 hPa 0,0 mm - 14,4 km/h 27,4 km/h NNW 663,0 W/qm 1,0 ja 10:35
10:407,9 °C 4,4 °C 5,0 °C 66 % 1039,2 hPa 0,0 mm - 11,2 km/h 27,4 km/h ONO 643,0 W/qm 0,9 ja 10:40
10:457,7 °C 4,4 °C 5,0 °C 65 % 1039,2 hPa 0,0 mm - 9,7 km/h 27,4 km/h ONO 142,0 W/qm 1,2 nein 10:45
10:507,9 °C 4,4 °C 5,0 °C 66 % 1039,0 hPa 0,0 mm - 11,2 km/h 20,9 km/h NO 679,0 W/qm 0,9 ja 10:50
10:557,7 °C 4,4 °C 5,0 °C 65 % 1039,1 hPa 0,0 mm - 11,2 km/h 20,9 km/h ONO 125,0 W/qm 0,9 nein 10:55
11:007,4 °C 4,4 °C 5,0 °C 64 % 1038,9 hPa 0,0 mm - 11,2 km/h 20,9 km/h O 109,0 W/qm 1,0 nein 11:00
11:057,2 °C 4,4 °C 5,0 °C 65 % 1038,9 hPa 0,0 mm 0,5 mm 9,7 km/h 19,4 km/h NO 102,0 W/qm 1,0 nein 11:05
11:107,3 °C 4,4 °C 5,0 °C 63 % 1038,9 hPa 0,0 mm 0,5 mm 11,2 km/h 17,6 km/h ONO 134,0 W/qm 1,0 nein 11:10
11:158,0 °C 4,4 °C 5,0 °C 62 % 1038,7 hPa 0,0 mm - 9,7 km/h 24,1 km/h ONO 747,0 W/qm 1,3 ja 11:15
11:208,4 °C 4,4 °C 5,0 °C 60 % 1038,4 hPa 0,0 mm - 7,9 km/h 24,1 km/h NO 230,0 W/qm 1,2 nein 11:20
11:258,3 °C 4,4 °C 5,0 °C 61 % 1038,5 hPa 0,0 mm - 9,7 km/h 17,6 km/h NO 661,0 W/qm 1,7 ja 11:25
11:308,4 °C 4,4 °C 5,0 °C 61 % 1038,2 hPa 0,0 mm - 13,0 km/h 24,1 km/h ONO 659,0 W/qm 1,8 ja 11:30
11:358,7 °C 4,4 °C 5,0 °C 59 % 1038,2 hPa 0,0 mm - 13,0 km/h 25,9 km/h NO 737,0 W/qm 1,6 ja 11:35
11:408,9 °C 4,4 °C 5,0 °C 60 % 1037,9 hPa 0,0 mm - 13,0 km/h 25,9 km/h NO 816,0 W/qm 2,0 ja 11:40
11:459,3 °C 4,4 °C 5,0 °C 56 % 1037,7 hPa 0,0 mm - 11,2 km/h 25,9 km/h NO 803,0 W/qm 1,9 ja 11:45
11:509,7 °C 4,4 °C 5,0 °C 59 % 1037,6 hPa 0,0 mm - 9,7 km/h 22,7 km/h ONO 802,0 W/qm 1,9 ja 11:50
11:559,4 °C 4,4 °C 5,0 °C 61 % 1037,6 hPa 0,0 mm - 13,0 km/h 22,7 km/h ONO 780,0 W/qm 1,7 ja 11:55
UhrzeitTemperaturBoden 10cmBoden 20cmFeuchteLuftdruckNiederschlagEvapotranspirationWindWindböenWindrichtungSolarstrahlungUV-IndexSonne?Uhrzeit
12:009,1 °C 4,4 °C 5,0 °C 62 % 1037,6 hPa 0,0 mm - 14,4 km/h 25,9 km/h NO 165,0 W/qm 1,0 nein 12:00
12:058,4 °C 4,4 °C 5,0 °C 62 % 1037,5 hPa 0,0 mm 0,8 mm 11,2 km/h 25,9 km/h NNO 135,0 W/qm 1,1 nein 12:05
12:108,4 °C 4,4 °C 5,0 °C 60 % 1037,4 hPa 0,0 mm 0,8 mm 11,2 km/h 25,9 km/h NO 652,0 W/qm 1,8 ja 12:10
12:158,3 °C 4,4 °C 5,0 °C 62 % 1037,2 hPa 0,0 mm - 13,0 km/h 25,9 km/h NO 149,0 W/qm 1,6 nein 12:15
12:208,4 °C 4,4 °C 5,0 °C 62 % 1037,1 hPa 0,0 mm - 13,0 km/h 27,4 km/h NNW 733,0 W/qm 1,1 ja 12:20
12:258,4 °C 4,4 °C 5,0 °C 62 % 1037,0 hPa 0,0 mm - 13,0 km/h 27,4 km/h NO 127,0 W/qm 1,1 nein 12:25
12:308,3 °C 5,0 °C 5,0 °C 61 % 1036,9 hPa 0,0 mm - 13,0 km/h 27,4 km/h ONO 779,0 W/qm 1,7 ja 12:30
12:358,7 °C 5,0 °C 5,0 °C 60 % 1036,8 hPa 0,0 mm - 13,0 km/h 27,4 km/h ONO 765,0 W/qm 1,9 ja 12:35
12:408,7 °C 5,0 °C 5,0 °C 59 % 1036,6 hPa 0,0 mm - 13,0 km/h 24,1 km/h NO 227,0 W/qm 1,1 nein 12:40
12:458,3 °C 5,0 °C 5,0 °C 58 % 1036,7 hPa 0,0 mm - 13,0 km/h 27,4 km/h NO 123,0 W/qm 0,8 nein 12:45
12:507,9 °C 5,0 °C 5,0 °C 58 % 1036,7 hPa 0,0 mm - 13,0 km/h 27,4 km/h ONO 144,0 W/qm 0,8 nein 12:50
12:557,8 °C 5,0 °C 5,0 °C 59 % 1036,7 hPa 0,0 mm - 14,4 km/h 32,0 km/h ONO 195,0 W/qm 0,9 nein 12:55
13:007,6 °C 5,0 °C 5,0 °C 57 % 1036,7 hPa 0,0 mm - 11,2 km/h 32,0 km/h N 167,0 W/qm 1,1 nein 13:00
13:057,8 °C 5,0 °C 5,0 °C 57 % 1036,6 hPa 0,0 mm 1,0 mm 11,2 km/h 25,9 km/h ONO 237,0 W/qm 1,6 nein 13:05
13:108,3 °C 5,0 °C 5,0 °C 56 % 1036,3 hPa 0,0 mm 1,0 mm 11,2 km/h 24,1 km/h N 722,0 W/qm 1,8 ja 13:10
13:159,0 °C 5,0 °C 5,0 °C 54 % 1036,1 hPa 0,0 mm - 11,2 km/h 24,1 km/h NO 763,0 W/qm 1,8 ja 13:15
13:209,1 °C 5,0 °C 5,0 °C 53 % 1036,0 hPa 0,0 mm - 13,0 km/h 24,1 km/h NO 740,0 W/qm 1,6 ja 13:20
13:258,8 °C 5,0 °C 5,0 °C 52 % 1036,0 hPa 0,0 mm - 14,4 km/h 27,4 km/h NO 192,0 W/qm 1,0 nein 13:25
13:308,2 °C 5,0 °C 5,0 °C 53 % 1036,2 hPa 0,0 mm - 14,4 km/h 28,8 km/h ONO 167,0 W/qm 0,7 nein 13:30
13:357,8 °C 5,0 °C 5,0 °C 55 % 1036,9 hPa 0,0 mm - 13,0 km/h 28,8 km/h NNO 44,0 W/qm 0,0 nein 13:35
13:406,9 °C 5,0 °C 5,0 °C 64 % 1037,4 hPa 0,0 mm - 14,4 km/h 28,8 km/h ONO 19,0 W/qm 0,0 nein 13:40
13:455,7 °C 5,0 °C 5,0 °C 71 % 1037,5 hPa 0,0 mm - 16,2 km/h 33,8 km/h NNO 49,0 W/qm 0,0 nein 13:45
13:504,6 °C 5,0 °C 5,0 °C 76 % 1037,7 hPa 0,2 mm - 16,2 km/h 33,8 km/h N 65,0 W/qm 0,0 nein 13:50
13:553,8 °C 5,0 °C 5,0 °C 80 % 1037,8 hPa 0,0 mm - 13,0 km/h 37,1 km/h NO 65,0 W/qm 0,0 nein 13:55
UhrzeitTemperaturBoden 10cmBoden 20cmFeuchteLuftdruckNiederschlagEvapotranspirationWindWindböenWindrichtungSolarstrahlungUV-IndexSonne?Uhrzeit
14:003,4 °C 5,0 °C 5,0 °C 83 % 1037,8 hPa 0,2 mm - 7,9 km/h 37,1 km/h ONO 62,0 W/qm 0,0 nein 14:00
14:053,1 °C 5,0 °C 5,0 °C 84 % 1037,9 hPa 0,2 mm 1,1 mm 9,7 km/h 28,8 km/h ONO 58,0 W/qm 0,0 nein 14:05
14:102,9 °C 5,0 °C 5,0 °C 85 % 1037,7 hPa 0,0 mm 1,1 mm 7,9 km/h 20,9 km/h NO 91,0 W/qm 0,0 nein 14:10
14:152,9 °C 5,0 °C 5,0 °C 86 % 1037,7 hPa 0,0 mm - 3,2 km/h 20,9 km/h NO 127,0 W/qm 0,0 nein 14:15
14:203,1 °C 5,0 °C 5,0 °C 87 % 1037,5 hPa 0,0 mm - 1,4 km/h 20,9 km/h NO 132,0 W/qm 0,0 nein 14:20
14:253,2 °C 5,0 °C 5,0 °C 88 % 1037,4 hPa 0,0 mm - 1,4 km/h 7,9 km/h NO 181,0 W/qm 0,6 nein 14:25
14:303,4 °C 5,0 °C 5,0 °C 88 % 1037,3 hPa 0,0 mm - 3,2 km/h 6,5 km/h ONO 183,0 W/qm 0,6 nein 14:30
14:353,7 °C 5,0 °C 5,0 °C 88 % 1037,1 hPa 0,0 mm - 4,7 km/h 7,9 km/h ONO 227,0 W/qm 0,7 nein 14:35
14:403,9 °C 5,0 °C 5,0 °C 88 % 1037,0 hPa 0,0 mm - 4,7 km/h 14,4 km/h NNO 230,0 W/qm 0,6 nein 14:40
14:454,1 °C 5,0 °C 5,0 °C 87 % 1036,9 hPa 0,0 mm - 7,9 km/h 16,2 km/h NO 167,0 W/qm 0,0 nein 14:45
14:504,1 °C 5,0 °C 5,0 °C 86 % 1036,9 hPa 0,0 mm - 9,7 km/h 22,7 km/h NO 123,0 W/qm 0,0 nein 14:50
14:554,1 °C 5,0 °C 5,0 °C 85 % 1036,9 hPa 0,0 mm - 9,7 km/h 22,7 km/h NO 160,0 W/qm 0,5 nein 14:55
15:004,1 °C 5,0 °C 5,0 °C 85 % 1036,9 hPa 0,0 mm - 7,9 km/h 22,7 km/h ONO 128,0 W/qm 0,0 nein 15:00
15:054,2 °C 5,0 °C 5,0 °C 85 % 1036,9 hPa 0,0 mm 1,2 mm 6,5 km/h 19,4 km/h NO 70,0 W/qm 0,0 nein 15:05
15:104,1 °C 5,0 °C 5,0 °C 85 % 1036,9 hPa 0,0 mm 1,2 mm 4,7 km/h 16,2 km/h NNO 104,0 W/qm 0,0 nein 15:10
15:154,1 °C 5,0 °C 5,0 °C 85 % 1036,7 hPa 0,0 mm - 6,5 km/h 16,2 km/h NO 158,0 W/qm 0,5 nein 15:15
15:204,2 °C 5,0 °C 5,0 °C 85 % 1036,4 hPa 0,0 mm - 6,5 km/h 11,2 km/h NO 190,0 W/qm 0,6 nein 15:20
15:254,3 °C 5,0 °C 5,0 °C 84 % 1036,3 hPa 0,0 mm - 6,5 km/h 11,2 km/h NO 141,0 W/qm 0,5 nein 15:25
15:304,4 °C 5,0 °C 5,0 °C 84 % 1036,3 hPa 0,0 mm - 6,5 km/h 11,2 km/h ONO 109,0 W/qm 0,0 nein 15:30
15:354,4 °C 5,0 °C 5,0 °C 84 % 1036,2 hPa 0,0 mm - 6,5 km/h 11,2 km/h ONO 100,0 W/qm 0,0 nein 15:35
15:404,4 °C 5,0 °C 5,0 °C 83 % 1036,2 hPa 0,0 mm - 9,7 km/h 19,4 km/h ONO 118,0 W/qm 0,0 nein 15:40
15:454,3 °C 5,0 °C 5,0 °C 83 % 1036,2 hPa 0,0 mm - 9,7 km/h 19,4 km/h NO 142,0 W/qm 0,5 nein 15:45
15:504,3 °C 5,0 °C 5,0 °C 83 % 1036,2 hPa 0,0 mm - 7,9 km/h 19,4 km/h NO 156,0 W/qm 0,5 nein 15:50
15:554,2 °C 5,0 °C 5,0 °C 83 % 1036,2 hPa 0,0 mm - 7,9 km/h 17,6 km/h N 111,0 W/qm 0,0 nein 15:55
UhrzeitTemperaturBoden 10cmBoden 20cmFeuchteLuftdruckNiederschlagEvapotranspirationWindWindböenWindrichtungSolarstrahlungUV-IndexSonne?Uhrzeit
16:004,2 °C 5,0 °C 5,0 °C 83 % 1036,1 hPa 0,0 mm - 7,9 km/h 17,6 km/h ONO 67,0 W/qm 0,0 nein 16:00
16:054,1 °C 5,0 °C 5,0 °C 83 % 1036,1 hPa 0,0 mm 1,3 mm 7,9 km/h 19,4 km/h O 93,0 W/qm 0,0 nein 16:05
16:104,1 °C 5,0 °C 5,0 °C 83 % 1036,1 hPa 0,0 mm 1,3 mm 7,9 km/h 19,4 km/h ONO 56,0 W/qm 0,0 nein 16:10
16:154,2 °C 5,0 °C 5,0 °C 83 % 1036,0 hPa 0,0 mm - 4,7 km/h 14,4 km/h ONO 116,0 W/qm 0,0 nein 16:15
16:204,4 °C 5,0 °C 5,0 °C 82 % 1035,8 hPa 0,0 mm - 4,7 km/h 14,4 km/h NNO 163,0 W/qm 0,0 nein 16:20
16:254,6 °C 5,0 °C 5,0 °C 81 % 1035,7 hPa 0,0 mm - 6,5 km/h 14,4 km/h NO 183,0 W/qm 0,0 nein 16:25
16:304,8 °C 5,0 °C 5,0 °C 80 % 1035,6 hPa 0,0 mm - 9,7 km/h 20,9 km/h NO 232,0 W/qm 0,0 nein 16:30
16:354,9 °C 5,0 °C 5,0 °C 79 % 1035,6 hPa 0,0 mm - 7,9 km/h 24,1 km/h NO 236,0 W/qm 0,0 nein 16:35
16:405,1 °C 5,0 °C 5,0 °C 79 % 1035,5 hPa 0,0 mm - 7,9 km/h 24,1 km/h NNO 246,0 W/qm 0,0 nein 16:40
16:455,2 °C 5,0 °C 5,0 °C 79 % 1035,4 hPa 0,0 mm - 7,9 km/h 24,1 km/h NO 158,0 W/qm 0,0 nein 16:45
16:505,2 °C 5,0 °C 5,0 °C 78 % 1035,4 hPa 0,0 mm - 7,9 km/h 14,4 km/h ONO 185,0 W/qm 0,0 nein 16:50
16:555,2 °C 5,0 °C 5,0 °C 78 % 1035,4 hPa 0,0 mm - 9,7 km/h 14,4 km/h NO 162,0 W/qm 0,0 nein 16:55
17:005,3 °C 5,0 °C 5,0 °C 78 % 1035,2 hPa 0,0 mm - 9,7 km/h 14,4 km/h NO 107,0 W/qm 0,0 nein 17:00
17:055,2 °C 5,0 °C 5,0 °C 77 % 1035,3 hPa 0,0 mm 1,4 mm 9,7 km/h 16,2 km/h NO 116,0 W/qm 0,0 nein 17:05
17:105,2 °C 5,0 °C 5,0 °C 77 % 1035,3 hPa 0,0 mm 1,4 mm 9,7 km/h 22,7 km/h NO 98,0 W/qm 0,0 nein 17:10
17:155,1 °C 5,0 °C 5,0 °C 77 % 1035,3 hPa 0,0 mm - 9,7 km/h 22,7 km/h ONO 88,0 W/qm 0,0 nein 17:15
17:205,1 °C 5,0 °C 5,0 °C 78 % 1035,3 hPa 0,0 mm - 7,9 km/h 22,7 km/h NO 65,0 W/qm 0,0 nein 17:20
17:254,9 °C 5,0 °C 5,0 °C 77 % 1035,3 hPa 0,0 mm - 7,9 km/h 19,4 km/h NO 51,0 W/qm 0,0 nein 17:25
17:304,8 °C 5,0 °C 5,0 °C 78 % 1035,3 hPa 0,0 mm - 7,9 km/h 19,4 km/h NNO 56,0 W/qm 0,0 nein 17:30
17:354,7 °C 5,0 °C 5,0 °C 78 % 1035,2 hPa 0,0 mm - 7,9 km/h 14,4 km/h NO 47,0 W/qm 0,0 nein 17:35
17:404,6 °C 5,0 °C 5,0 °C 78 % 1035,2 hPa 0,0 mm - 6,5 km/h 16,2 km/h NO 44,0 W/qm 0,0 nein 17:40
17:454,5 °C 5,0 °C 5,0 °C 79 % 1035,2 hPa 0,0 mm - 4,7 km/h 16,2 km/h NO 42,0 W/qm 0,0 nein 17:45
17:504,4 °C 5,0 °C 5,0 °C 79 % 1035,2 hPa 0,0 mm - 6,5 km/h 16,2 km/h NO 42,0 W/qm 0,0 nein 17:50
17:554,3 °C 5,0 °C 5,0 °C 79 % 1035,3 hPa 0,0 mm - 6,5 km/h 11,2 km/h NO 33,0 W/qm 0,0 nein 17:55
UhrzeitTemperaturBoden 10cmBoden 20cmFeuchteLuftdruckNiederschlagEvapotranspirationWindWindböenWindrichtungSolarstrahlungUV-IndexSonne?Uhrzeit
18:004,2 °C 5,0 °C 5,0 °C 80 % 1035,3 hPa 0,0 mm - 6,5 km/h 11,2 km/h NO 25,0 W/qm 0,0 nein 18:00
18:054,1 °C 5,0 °C 5,0 °C 80 % 1035,3 hPa 0,0 mm 1,4 mm 6,5 km/h 11,2 km/h ONO 18,0 W/qm 0,0 nein 18:05
18:104,1 °C 5,0 °C 5,0 °C 80 % 1035,3 hPa 0,0 mm 1,4 mm 6,5 km/h 11,2 km/h NO 14,0 W/qm 0,0 nein 18:10
18:153,9 °C 5,0 °C 5,0 °C 80 % 1035,3 hPa 0,0 mm - 4,7 km/h 13,0 km/h NO 11,0 W/qm 0,0 nein 18:15
18:203,7 °C 5,0 °C 5,0 °C 81 % 1035,4 hPa 0,0 mm - 4,7 km/h 13,0 km/h NO 9,0 W/qm 0,0 nein 18:20
18:253,4 °C 5,0 °C 5,0 °C 81 % 1035,4 hPa 0,0 mm - 4,7 km/h 13,0 km/h NO 7,0 W/qm 0,0 nein 18:25
18:303,3 °C 5,0 °C 5,0 °C 82 % 1035,5 hPa 0,0 mm - 4,7 km/h 11,2 km/h ONO 5,0 W/qm 0,0 nein 18:30
18:353,1 °C 5,0 °C 5,0 °C 82 % 1035,5 hPa 0,0 mm - 3,2 km/h 11,2 km/h NNO 0,0 W/qm 0,0 nein 18:35
18:402,8 °C 5,0 °C 5,0 °C 83 % 1035,5 hPa 0,0 mm - 3,2 km/h 7,9 km/h NO 0,0 W/qm 0,0 nein 18:40
18:452,7 °C 5,0 °C 5,0 °C 83 % 1035,5 hPa 0,0 mm - 3,2 km/h 7,9 km/h NO 0,0 W/qm 0,0 nein 18:45
18:502,6 °C 5,0 °C 5,0 °C 84 % 1035,5 hPa 0,0 mm - 3,2 km/h 7,9 km/h NNO 0,0 W/qm 0,0 nein 18:50
18:552,5 °C 5,0 °C 5,0 °C 84 % 1035,6 hPa 0,0 mm - 3,2 km/h 6,5 km/h NO 0,0 W/qm 0,0 nein 18:55
19:002,4 °C 5,0 °C 5,0 °C 84 % 1035,6 hPa 0,0 mm - 3,2 km/h 9,7 km/h NO 0,0 W/qm 0,0 nein 19:00
19:052,3 °C 5,0 °C 5,0 °C 84 % 1035,6 hPa 0,0 mm 1,4 mm 4,7 km/h 9,7 km/h NO 0,0 W/qm 0,0 nein 19:05
19:102,2 °C 5,0 °C 5,0 °C 84 % 1035,6 hPa 0,0 mm 1,4 mm 3,2 km/h 11,2 km/h NNO 0,0 W/qm 0,0 nein 19:10
19:152,1 °C 5,0 °C 5,0 °C 85 % 1035,5 hPa 0,0 mm - 1,4 km/h 11,2 km/h ONO 0,0 W/qm 0,0 nein 19:15
19:202,1 °C 5,0 °C 5,0 °C 85 % 1035,5 hPa 0,0 mm - 1,4 km/h 11,2 km/h NNO 0,0 W/qm 0,0 nein 19:20
19:252,1 °C 5,0 °C 5,0 °C 85 % 1035,6 hPa 0,0 mm - 1,4 km/h 7,9 km/h NO 0,0 W/qm 0,0 nein 19:25
19:302,2 °C 5,0 °C 5,0 °C 85 % 1035,5 hPa 0,0 mm - 1,4 km/h 6,5 km/h NO 0,0 W/qm 0,0 nein 19:30
19:352,3 °C 5,0 °C 5,0 °C 85 % 1035,5 hPa 0,0 mm - 1,4 km/h 7,9 km/h NO 0,0 W/qm 0,0 nein 19:35
19:402,3 °C 5,0 °C 5,0 °C 84 % 1035,4 hPa 0,0 mm - 3,2 km/h 7,9 km/h NO 0,0 W/qm 0,0 nein 19:40
19:452,5 °C 5,0 °C 5,0 °C 84 % 1035,5 hPa 0,0 mm - 1,4 km/h 7,9 km/h NO 0,0 W/qm 0,0 nein 19:45
19:502,6 °C 5,0 °C 5,0 °C 83 % 1035,3 hPa 0,0 mm - 1,4 km/h 7,9 km/h NO 0,0 W/qm 0,0 nein 19:50
19:552,6 °C 5,0 °C 5,0 °C 82 % 1035,2 hPa 0,0 mm - 3,2 km/h 7,9 km/h NO 0,0 W/qm 0,0 nein 19:55
UhrzeitTemperaturBoden 10cmBoden 20cmFeuchteLuftdruckNiederschlagEvapotranspirationWindWindböenWindrichtungSolarstrahlungUV-IndexSonne?Uhrzeit
20:002,6 °C 5,0 °C 5,0 °C 81 % 1035,3 hPa 0,0 mm - 3,2 km/h 6,5 km/h NO 0,0 W/qm 0,0 nein 20:00
20:052,7 °C 5,0 °C 5,0 °C 81 % 1035,2 hPa 0,0 mm 1,4 mm 3,2 km/h 6,5 km/h NO 0,0 W/qm 0,0 nein 20:05
20:102,7 °C 5,0 °C 5,0 °C 79 % 1035,2 hPa 0,0 mm 1,4 mm 3,2 km/h 7,9 km/h NO 0,0 W/qm 0,0 nein 20:10
20:152,9 °C 5,0 °C 5,0 °C 76 % 1035,1 hPa 0,0 mm - 4,7 km/h 7,9 km/h NO 0,0 W/qm 0,0 nein 20:15
20:202,9 °C 5,0 °C 5,0 °C 74 % 1035,0 hPa 0,0 mm - 4,7 km/h 11,2 km/h ONO 0,0 W/qm 0,0 nein 20:20
20:253,1 °C 5,0 °C 5,0 °C 73 % 1035,0 hPa 0,0 mm - 3,2 km/h 13,0 km/h NO 0,0 W/qm 0,0 nein 20:25
20:303,1 °C 5,0 °C 5,0 °C 71 % 1034,9 hPa 0,0 mm - 3,2 km/h 13,0 km/h NNO 0,0 W/qm 0,0 nein 20:30
20:353,2 °C 5,0 °C 5,0 °C 71 % 1034,7 hPa 0,0 mm - 4,7 km/h 13,0 km/h NO 0,0 W/qm 0,0 nein 20:35
20:403,3 °C 5,0 °C 5,0 °C 67 % 1034,6 hPa 0,0 mm - 6,5 km/h 13,0 km/h NO 0,0 W/qm 0,0 nein 20:40
20:453,7 °C 5,0 °C 5,0 °C 65 % 1034,6 hPa 0,0 mm - 6,5 km/h 13,0 km/h NNO 0,0 W/qm 0,0 nein 20:45
20:503,9 °C 5,0 °C 5,0 °C 60 % 1034,4 hPa 0,0 mm - 6,5 km/h 13,0 km/h NNO 0,0 W/qm 0,0 nein 20:50
20:554,1 °C 5,0 °C 5,0 °C 59 % 1034,4 hPa 0,0 mm - 7,9 km/h 16,2 km/h NNO 0,0 W/qm 0,0 nein 20:55
21:004,2 °C 5,0 °C 5,0 °C 58 % 1034,4 hPa 0,0 mm - 7,9 km/h 16,2 km/h NO 0,0 W/qm 0,0 nein 21:00
21:054,2 °C 5,0 °C 5,0 °C 57 % 1034,3 hPa 0,0 mm 1,4 mm 7,9 km/h 16,2 km/h NO 0,0 W/qm 0,0 nein 21:05
21:104,3 °C 5,0 °C 5,0 °C 56 % 1034,2 hPa 0,0 mm 1,4 mm 7,9 km/h 17,6 km/h NO 0,0 W/qm 0,0 nein 21:10
21:154,3 °C 5,0 °C 5,0 °C 56 % 1034,2 hPa 0,0 mm - 7,9 km/h 19,4 km/h NO 0,0 W/qm 0,0 nein 21:15
21:204,4 °C 5,0 °C 5,0 °C 55 % 1034,1 hPa 0,0 mm - 7,9 km/h 19,4 km/h NO 0,0 W/qm 0,0 nein 21:20
21:254,4 °C 5,0 °C 5,0 °C 55 % 1034,1 hPa 0,0 mm - 7,9 km/h 19,4 km/h NO 0,0 W/qm 0,0 nein 21:25
21:304,4 °C 5,0 °C 5,0 °C 56 % 1034,0 hPa 0,0 mm - 6,5 km/h 17,6 km/h NNO 0,0 W/qm 0,0 nein 21:30
21:354,1 °C 5,0 °C 5,0 °C 58 % 1034,0 hPa 0,0 mm - 6,5 km/h 17,6 km/h NO 0,0 W/qm 0,0 nein 21:35
21:404,1 °C 5,0 °C 5,0 °C 56 % 1034,0 hPa 0,0 mm - 6,5 km/h 13,0 km/h NO 0,0 W/qm 0,0 nein 21:40
21:454,1 °C 5,0 °C 5,0 °C 56 % 1034,0 hPa 0,0 mm - 6,5 km/h 13,0 km/h ONO 0,0 W/qm 0,0 nein 21:45
21:504,1 °C 5,0 °C 5,0 °C 57 % 1033,9 hPa 0,0 mm - 4,7 km/h 11,2 km/h NNO 0,0 W/qm 0,0 nein 21:50
21:554,0 °C 5,0 °C 5,0 °C 56 % 1033,8 hPa 0,0 mm - 3,2 km/h 11,2 km/h NO 0,0 W/qm 0,0 nein 21:55
UhrzeitTemperaturBoden 10cmBoden 20cmFeuchteLuftdruckNiederschlagEvapotranspirationWindWindböenWindrichtungSolarstrahlungUV-IndexSonne?Uhrzeit
22:004,0 °C 5,0 °C 5,0 °C 57 % 1033,8 hPa 0,0 mm - 4,7 km/h 11,2 km/h NNO 0,0 W/qm 0,0 nein 22:00
22:053,8 °C 5,0 °C 5,0 °C 58 % 1033,7 hPa 0,0 mm 1,5 mm 6,5 km/h 14,4 km/h ONO 0,0 W/qm 0,0 nein 22:05
22:103,7 °C 5,0 °C 5,0 °C 57 % 1033,6 hPa 0,0 mm 1,5 mm 6,5 km/h 14,4 km/h NNO 0,0 W/qm 0,0 nein 22:10
22:153,7 °C 5,0 °C 5,0 °C 56 % 1033,6 hPa 0,0 mm - 6,5 km/h 14,4 km/h N 0,0 W/qm 0,0 nein 22:15
22:203,6 °C 5,0 °C 5,0 °C 59 % 1033,7 hPa 0,0 mm - 4,7 km/h 13,0 km/h NNO 0,0 W/qm 0,0 nein 22:20
22:253,6 °C 5,0 °C 5,0 °C 58 % 1033,6 hPa 0,0 mm - 4,7 km/h 13,0 km/h NO 0,0 W/qm 0,0 nein 22:25
22:303,4 °C 5,0 °C 5,0 °C 59 % 1033,6 hPa 0,0 mm - 4,7 km/h 13,0 km/h NO 0,0 W/qm 0,0 nein 22:30
22:353,2 °C 5,0 °C 5,0 °C 59 % 1033,4 hPa 0,0 mm - 3,2 km/h 9,7 km/h NO 0,0 W/qm 0,0 nein 22:35
22:403,3 °C 5,0 °C 5,0 °C 59 % 1033,4 hPa 0,0 mm - 3,2 km/h 9,7 km/h NO 0,0 W/qm 0,0 nein 22:40
22:453,1 °C 5,0 °C 5,0 °C 60 % 1033,4 hPa 0,0 mm - 3,2 km/h 13,0 km/h NNO 0,0 W/qm 0,0 nein 22:45
22:502,9 °C 5,0 °C 5,0 °C 60 % 1033,3 hPa 0,0 mm - 3,2 km/h 13,0 km/h ONO 0,0 W/qm 0,0 nein 22:50
22:552,8 °C 5,0 °C 5,0 °C 62 % 1033,3 hPa 0,0 mm - 3,2 km/h 13,0 km/h ONO 0,0 W/qm 0,0 nein 22:55
23:002,6 °C 5,0 °C 5,0 °C 63 % 1033,3 hPa 0,0 mm - 3,2 km/h 7,9 km/h NNW 0,0 W/qm 0,0 nein 23:00
23:052,6 °C 5,0 °C 5,0 °C 62 % 1033,2 hPa 0,0 mm 1,5 mm 3,2 km/h 7,9 km/h ONO 0,0 W/qm 0,0 nein 23:05
23:102,9 °C 4,4 °C 5,0 °C 61 % 1033,1 hPa 0,0 mm 1,5 mm 3,2 km/h 11,2 km/h N 0,0 W/qm 0,0 nein 23:10
23:152,9 °C 4,4 °C 5,0 °C 61 % 1033,1 hPa 0,0 mm - 4,7 km/h 11,2 km/h NNO 0,0 W/qm 0,0 nein 23:15
23:203,2 °C 4,4 °C 5,0 °C 60 % 1033,1 hPa 0,0 mm - 6,5 km/h 11,2 km/h N 0,0 W/qm 0,0 nein 23:20
23:253,4 °C 4,4 °C 5,0 °C 62 % 1033,1 hPa 0,0 mm - 4,7 km/h 13,0 km/h N 0,0 W/qm 0,0 nein 23:25
23:303,3 °C 4,4 °C 5,0 °C 60 % 1033,0 hPa 0,0 mm - 3,2 km/h 13,0 km/h NNO 0,0 W/qm 0,0 nein 23:30
23:353,4 °C 4,4 °C 5,0 °C 59 % 1033,0 hPa 0,0 mm - 4,7 km/h 13,0 km/h NO 0,0 W/qm 0,0 nein 23:35
23:403,5 °C 4,4 °C 5,0 °C 58 % 1032,9 hPa 0,0 mm - 4,7 km/h 11,2 km/h NO 0,0 W/qm 0,0 nein 23:40
23:453,6 °C 4,4 °C 5,0 °C 58 % 1032,9 hPa 0,0 mm - 4,7 km/h 13,0 km/h NO 0,0 W/qm 0,0 nein 23:45
23:503,2 °C 4,4 °C 5,0 °C 60 % 1032,9 hPa 0,0 mm - 4,7 km/h 13,0 km/h NNO 0,0 W/qm 0,0 nein 23:50
23:553,1 °C 4,4 °C 5,0 °C 60 % 1032,8 hPa 0,0 mm - 3,2 km/h 13,0 km/h NO 0,0 W/qm 0,0 nein 23:55
Gesamt: 2,9 °C 4,8 °C 5,2 °C 79 % 1038,8 hPa 0,6 mm 32,4 mm 4,9 km/h 11,5 km/h 0 117,5 W/qm 0,3 ja

Insgesamt 288 Zeilen mal 13 Spalten = 3744 Werte werden angezeigt.

www.wetter-rosstal.de   •   www.wetter-franken.de   •   www.lightningmaps.org   •   Start   •   Kontakt / Datenschutz   •   PC-Kümmerer